Flag for Germany Weather past 2 weeks in Heilbronn, Baden-Württemberg, Germany

Now
57 °F

Overcast.


Feels Like: 57 °F
Forecast: 47 / 59 °F
Wind: 1 mph from Southeast

Location: Oehringen

Current Time: May 25, 2015 at 4:25:21 AM

Latest Report: May 25, 2015 at 4:00 AM


Visibility: 12 mi

Pressure: 30.01 "Hg

Humidity: 72%

Dew point: 48 °F

Location of HeilbronnLocation

Historic Weather in Heilbronn — Graph

°F

Heilbronn temperature yesterday

Maximum temperature yesterday: 69 °F (at 2:00 PM)
Minimum temperature yesterday: 55 °F (at 6:00 AM)
Average temperature yesterday: 62 °F

Past Weeks' High & Low Weather Summary

 TemperatureHumidityPressure
High83 °F (May 12, 3:00 PM)97% (May 17, 3:00 AM)30.37 "Hg (May 17, 3:00 AM)
Low38 °F (May 22, 6:00 AM)28% (May 15, 7:00 PM)29.71 "Hg (May 18, 9:00 PM)
Average59 °F63%30.08 "Hg
* Reported May 10 3:00 AM — May 25 3:00 AM, Heilbronn, Weather by CustomWeather, © 2015

Note: Actual official high and low records may vary slightly from our data, if they occured in-between our weather recording intervals... More about our weather records

Advertising

Heilbronn weather history for previous 24 hours

 ConditionsComfort  
Time TempWeatherWind HumidityBarometerVisibility
3:00 AM
Mon, May 25
59 °FOvercast.1 mph68%30.01 "Hg13 mi
2:00 AM59 °FOvercast.2 mph68%30.02 "Hg14 mi
1:00 AM59 °FOvercast.1 mph70%30.03 "Hg13 mi
12:00 AM60 °FOvercast.2 mph65%30.04 "Hg16 mi
11:00 PM
Sun, May 24
61 °FOvercast.1 mph60%30.04 "Hg19 mi
10:00 PM62 °FOvercast.1 mph58%30.04 "Hg19 mi
9:00 PM64 °FOvercast.2 mph55%30.03 "Hg19 mi
8:00 PM65 °FOvercast.2 mph53%30.03 "Hg19 mi
7:00 PM67 °FOvercast.2 mph49%30.03 "Hg22 mi
6:00 PM67 °FOvercast.3 mph47%30.03 "Hg19 mi
5:00 PM68 °FOvercast.3 mph49%30.04 "Hg16 mi
4:00 PM69 °FOvercast.3 mph45%30.04 "Hg17 mi
3:00 PM69 °FOvercast.3 mph47%30.04 "Hg17 mi
2:00 PM69 °FOvercast.2 mph47%30.05 "Hg18 mi
1:00 PM68 °FOvercast.2 mph48%30.06 "Hg14 mi
12:00 PM66 °FOvercast.3 mph55%30.07 "Hg11 mi
11:00 AM65 °FOvercast.3 mph59%30.08 "Hg9 mi
10:00 AM62 °FOvercast.2 mph68%30.09 "Hg10 mi
9:00 AM60 °FOvercast.1 mph72%30.08 "Hg9 mi
8:00 AM57 °FOvercast.1 mph78%30.08 "Hg7 mi
7:00 AM55 °FOvercast.2 mph78%30.08 "Hg8 mi
6:00 AM55 °FOvercast.2 mph77%30.07 "Hg9 mi
5:00 AM56 °FOvercast.2 mph73%30.07 "Hg10 mi
4:00 AM56 °FOvercast.1 mph73%30.07 "Hg11 mi
Weather by CustomWeather, © 2015

See weather overviewHow to use our weather pages